Location: Cudham
(51.3000°N, 0.0667°E)
Time: 17:37:05
(UTC+00:00)

USA 229 DEB - Pass Details

Date: 22 April 2026
Orbit: 844 x 1364 km, 63.4° (Epoch: 10 January)

Event Time Altitude Azimuth Distance (km) Brightness Sun altitude
Rises 23:07:08 0° 314° (NW) 3,910 7.5 -25.3°
Reaches altitude 10° 23:09:41 10° 316° (NW) 3,022 6.8 -25.4°
Maximum altitude 23:17:03 80° 44° (NE) 1,258 4.0 -25.6°
Enters shadow 23:20:33 38° 126° (SE) 1,853 4.6 -25.7°
